Weather History for Windom, MN

Change the Weather History Date:

Thursday, November 29, 2012

  Actual Average Record
Temperature  
Mean Temperature 28 °F -  
Max Temperature 42 °F 34 °F 62 °F (1973)
Min Temperature 15 °F 16 °F -8 °F (1964)
Degree Days  
Heating Degree Days 36    
Moisture  
Dew Point 24 °F    
Average Humidity 75    
Maximum Humidity 100    
Minimum Humidity 53    
Precipitation  
Precipitation 0.00 in - - ()
Sea Level Pressure  
Sea Level Pressure 29.99 in    
Wind  
Wind Speed 5 mph (NE)    
Max Wind Speed 12 mph    
Max Gust Speed -    
Visibility 10 miles    
Events      
Averages and records for this station are not official NWS values.
T = Trace of Precipitation, MM = Missing Value Source: NWS Daily Summary

Daily Weather History Graph

Daily Weather History Graph

Search for Another Location

Airport:

Trip Planner

Search our weather history database for the weather conditions in past years. The results will help you decide how hot, cold, wet, or windy it might be!

Date:

Astronomy

Nov. 29, 2012 Rise Set
Actual Time 7:33 AM CST 4:44 PM CST
Civil Twilight 7:00 AM CST 5:16 PM CST
Nautical Twilight 6:25 AM CST 5:52 PM CST
Astronomical Twilight 5:50 AM CST 6:27 PM CST
Moon 5:48 PM CST (11/29) 8:20 AM CST (11/29)
Length of Visible Light 10h 15m
Length of Day
9h 11m
Full, 99% of the Moon is Illuminated
Nov 29
Full
Dec 6
Last Quarter
Dec 13
New
Dec 19
First Quarter
Dec 28
Full

Hourly Weather History & Observations

Time (CST) Temp. Windchill Dew Point Humidity Pressure Visibility Wind Dir Wind Speed Gust Speed Precip Events Conditions
12:12 AM 26.6 °F - 21.2 °F 80% 30.02 in 10.0 mi Calm Calm - N/A   Clear
12:33 AM 26.6 °F 22.6 °F 21.2 °F 80% 30.01 in 10.0 mi South 3.5 mph - N/A   Clear
12:52 AM 24.8 °F 17.9 °F 21.2 °F 86% 30.01 in 10.0 mi South 5.8 mph - N/A   Clear
1:12 AM 23.0 °F 18.4 °F 19.4 °F 86% 30.01 in 10.0 mi SSW 3.5 mph - N/A   Clear
1:33 AM 23.0 °F 17.0 °F 19.4 °F 86% 30.00 in 10.0 mi SSW 4.6 mph - N/A   Clear
1:52 AM 26.6 °F 22.6 °F 21.2 °F 80% 30.00 in 10.0 mi SSW 3.5 mph - N/A   Clear
2:12 AM 26.6 °F 22.6 °F 21.2 °F 80% 30.00 in 10.0 mi SSW 3.5 mph - N/A   Clear
2:33 AM 26.6 °F 21.2 °F 21.2 °F 80% 30.01 in 10.0 mi SSW 4.6 mph - N/A   Clear
2:52 AM 24.8 °F 20.5 °F 21.2 °F 86% 30.00 in 10.0 mi SW 3.5 mph - N/A   Clear
3:12 AM 24.8 °F 20.5 °F 21.2 °F 86% 30.01 in 10.0 mi SSW 3.5 mph - N/A   Clear
3:33 AM 24.8 °F 20.5 °F 21.2 °F 86% 30.00 in 10.0 mi SSW 3.5 mph - N/A   Clear
3:52 AM 24.8 °F 20.5 °F 21.2 °F 86% 30.00 in 10.0 mi SSW 3.5 mph - N/A   Clear
4:12 AM 24.8 °F 20.5 °F 21.2 °F 86% 29.99 in 10.0 mi SSW 3.5 mph - N/A   Clear
4:33 AM 23.0 °F 18.4 °F 19.4 °F 86% 29.99 in 10.0 mi SSW 3.5 mph - N/A   Clear
4:52 AM 24.8 °F - 21.2 °F 86% 29.99 in 10.0 mi Calm Calm - N/A   Clear
5:12 AM 19.4 °F - 17.6 °F 93% 29.99 in 10.0 mi Calm Calm - N/A   Clear
5:52 AM 19.4 °F 14.3 °F 17.6 °F 93% 29.99 in 10.0 mi WNW 3.5 mph - N/A   Clear
6:13 AM 17.6 °F 10.7 °F 15.8 °F 93% 29.99 in 10.0 mi WNW 4.6 mph - N/A   Clear
6:33 AM 17.6 °F - 15.8 °F 93% 30.00 in 10.0 mi Calm Calm - N/A   Clear
6:52 AM 19.4 °F - 17.6 °F 93% 30.00 in 10.0 mi Calm Calm - N/A   Clear
7:13 AM 15.8 °F - 14.0 °F 93% 30.00 in 10.0 mi Calm Calm - N/A   Clear
7:33 AM 15.8 °F - 14.0 °F 93% 30.00 in 10.0 mi Calm Calm - N/A   Clear
7:52 AM 19.4 °F 12.8 °F 19.4 °F 100% 30.00 in 7.0 mi NNW 4.6 mph - N/A   Clear
8:13 AM 23.0 °F 15.8 °F 19.4 °F 86% 30.00 in 10.0 mi North 5.8 mph - N/A   Clear
8:33 AM 26.6 °F 17.5 °F 21.2 °F 80% 30.00 in 10.0 mi North 9.2 mph - N/A   Clear
8:52 AM 26.6 °F 17.5 °F 24.8 °F 93% 30.01 in 10.0 mi North 9.2 mph - N/A   Clear
9:13 AM 28.4 °F 20.4 °F 24.8 °F 86% 30.01 in 10.0 mi North 8.1 mph - N/A   Clear
9:32 AM 30.2 °F 21.9 °F 24.8 °F 80% 30.01 in 10.0 mi North 9.2 mph - N/A   Clear
9:52 AM 32.0 °F 24.2 °F 24.8 °F 75% 30.02 in 10.0 mi NNE 9.2 mph - N/A   Clear
10:12 AM 33.8 °F 27.0 °F 24.8 °F 70% 30.01 in 10.0 mi NNE 8.1 mph - N/A   Clear
10:32 AM 35.6 °F 28.6 °F 24.8 °F 65% 30.02 in 10.0 mi NE 9.2 mph - N/A   Clear
10:53 AM 35.6 °F 29.2 °F 24.8 °F 65% 30.02 in 10.0 mi NE 8.1 mph - N/A   Clear
11:13 AM 35.6 °F 29.2 °F 24.8 °F 65% 30.01 in 10.0 mi NE 8.1 mph - N/A   Clear
11:32 AM 35.6 °F 29.2 °F 24.8 °F 65% 29.99 in 10.0 mi ENE 8.1 mph - N/A   Clear
11:52 AM 37.4 °F 32.1 °F 24.8 °F 60% 29.99 in 10.0 mi NE 6.9 mph - N/A   Clear
12:13 PM 39.2 °F 35.0 °F 26.6 °F 61% 29.99 in 10.0 mi East 5.8 mph - N/A   Clear
12:32 PM 39.2 °F 35.9 °F 26.6 °F 61% 29.99 in 10.0 mi ENE 4.6 mph - N/A   Clear
12:52 PM 39.2 °F 35.0 °F 26.6 °F 61% 29.99 in 10.0 mi NE 5.8 mph - N/A   Clear
1:13 PM 41.0 °F 38.0 °F 26.6 °F 57% 29.99 in 10.0 mi East 4.6 mph - N/A   Clear
1:32 PM 41.0 °F 38.0 °F 26.6 °F 57% 29.98 in 10.0 mi ENE 4.6 mph - N/A   Clear
1:52 PM 41.0 °F 35.8 °F 26.6 °F 57% 29.97 in 10.0 mi East 8.1 mph - N/A   Clear
2:13 PM 41.0 °F 36.4 °F 26.6 °F 57% 29.97 in 10.0 mi ENE 6.9 mph - N/A   Clear
2:32 PM 41.0 °F 36.4 °F 26.6 °F 57% 29.97 in 10.0 mi ENE 6.9 mph - N/A   Clear
2:52 PM 42.8 °F 37.5 °F 26.6 °F 53% 29.95 in 10.0 mi NE 9.2 mph - N/A   Clear
3:13 PM 42.8 °F 37.5 °F 26.6 °F 53% 29.96 in 10.0 mi NNE 9.2 mph - N/A   Clear
3:32 PM 41.0 °F 35.2 °F 26.6 °F 57% 29.97 in 10.0 mi NNE 9.2 mph - N/A   Clear
3:53 PM 39.2 °F 33.6 °F 26.6 °F 61% 29.97 in 10.0 mi ENE 8.1 mph - N/A   Clear
4:13 PM 39.2 °F 32.5 °F 26.6 °F 61% 29.95 in 10.0 mi ENE 10.4 mph - N/A   Clear
4:32 PM 37.4 °F 31.4 °F 26.6 °F 65% 29.96 in 10.0 mi ENE 8.1 mph - N/A   Clear
4:53 PM 37.4 °F 32.8 °F 26.6 °F 65% 29.97 in 10.0 mi NE 5.8 mph - N/A   Clear
5:13 PM 35.6 °F 29.2 °F 24.8 °F 65% 29.96 in 10.0 mi ENE 8.1 mph - N/A   Clear
5:32 PM 35.6 °F 31.7 °F 26.6 °F 70% 29.97 in 10.0 mi NE 4.6 mph - N/A   Clear
5:53 PM 33.8 °F 27.7 °F 24.8 °F 70% 29.98 in 10.0 mi NE 6.9 mph - N/A   Clear
6:13 PM 33.8 °F 27.7 °F 26.6 °F 75% 29.98 in 10.0 mi NE 6.9 mph - N/A   Clear
6:32 PM 35.6 °F 29.9 °F 26.6 °F 70% 29.99 in 10.0 mi NE 6.9 mph - N/A   Clear
6:53 PM 35.6 °F 29.2 °F 26.6 °F 70% 29.99 in 10.0 mi NE 8.1 mph - N/A   Clear
7:13 PM 35.6 °F 29.2 °F 26.6 °F 70% 30.00 in 10.0 mi NNE 8.1 mph - N/A   Clear
7:32 PM 35.6 °F 28.0 °F 26.6 °F 70% 30.00 in 10.0 mi NE 10.4 mph - N/A   Clear
7:53 PM 33.8 °F 25.8 °F 26.6 °F 75% 29.99 in 10.0 mi NE 10.4 mph - N/A   Clear
8:13 PM 33.8 °F 26.4 °F 26.6 °F 75% 29.99 in 10.0 mi NE 9.2 mph - N/A   Clear
8:32 PM 33.8 °F 25.8 °F 26.6 °F 75% 29.98 in 10.0 mi ENE 10.4 mph - N/A   Clear
8:53 PM 33.8 °F 26.4 °F 26.6 °F 75% 29.98 in 10.0 mi East 9.2 mph - N/A   Scattered Clouds
9:12 PM 33.8 °F 25.3 °F 26.6 °F 75% 29.96 in 10.0 mi ENE 11.5 mph - N/A   Mostly Cloudy
9:33 PM 33.8 °F 29.6 °F 26.6 °F 75% 30.00 in 10.0 mi ENE 4.6 mph - N/A   Mostly Cloudy
9:53 PM 33.8 °F 27.0 °F 26.6 °F 75% 29.99 in 10.0 mi NE 8.1 mph - N/A   Mostly Cloudy
10:12 PM 32.0 °F 25.6 °F 24.8 °F 75% 29.99 in 10.0 mi NE 6.9 mph - N/A   Scattered Clouds
10:52 PM 30.2 °F 21.9 °F 24.8 °F 80% 29.99 in 10.0 mi NE 9.2 mph - N/A   Clear
11:12 PM 30.2 °F 21.3 °F 24.8 °F 80% 29.98 in 10.0 mi NE 10.4 mph - N/A   Clear
11:33 PM 30.2 °F 21.3 °F 24.8 °F 80% 29.98 in 10.0 mi NE 10.4 mph - N/A   Scattered Clouds
11:52 PM 30.2 °F 21.3 °F 24.8 °F 80% 29.98 in 10.0 mi NNE 10.4 mph - N/A   Scattered Clouds